Beidou DW 43

operational
NORAD ID: 43707 Int'l Des: 2018-093 Owner: CNSA Country: CN Constellation: BeiDou
MEOCIRCULAR

About Beidou DW 43

Description loading...

Live Position

Loading 3D Globe...

Upcoming Passes

Altitude History

Altitude vs Time

uPlot chart will show altitude changes over time

Two-Line Element Set

1 43707U 18093B 25295.83685036 .00000032 00000-0 00000+0 0 9998
2 43707 54.1746 190.3420 0006957 338.7467 21.3055 1.86230144 47112
Epoch: Oct 22, 2025 • Age: 84 hours

Current Status

Altitude 21546.5 km
Velocity 3.78 km/s
Sub-Earth Point -0.70°S, 142.42°W
Launch Date Nov 18, 2018
Age 6.9 years
Type navigation

Technical Details

Classification Payload
Mass 1014.00 kg
Dry Mass 850.00 kg
Total Mass 1014.00 kg
Length 2.20 m
Diameter 1.70 m
Span 10.00 m
Shape Box + 2 Pan
Manufacturer CAST
Bus Type BD-3M/SAR
Phase Status In Orbit
Owner/State CNSA/CN

Large Constellations

Loading constellations...